Location: Az?znagar
(16.8373°N, 80.5091°E)
Time: 17:05:30
(UTC+00:00)

SJ-7 - Pass Details

Date: 04 December 2021
Orbit: 553 x 601 km, 97.7° (Epoch: 17 January)

Event Time Altitude Azimuth Distance (km) Brightness Sun altitude
Rises 00:17:18 0° 5° (N) 2,811 7.8 -8.7°
Reaches altitude 10° 00:19:30 10° 1° (N) 1,903 6.9 -8.2°
Maximum altitude 00:23:33 57° 283° (WNW) 680 4.5 -7.3°
Drops below altitude 10° 00:27:32 10° 204° (SSW) 1,870 7.0 -6.4°
Sets 00:29:40 0° 200° (SSW) 2,758 7.9 -5.9°
